This is the latest recevied weather packets stored in our database for station/object W0AKO. If no packets are shown the sender has not sent any weather packets the latest 10 day(s).
| Time | Temp. | Humidity | Pressure | Rain* | Wind** | Luminosity | Snow |
|---|---|---|---|---|---|---|---|
| 1777856875 | 25.56° C | 10% | 1010.1 hPa | 0 mm | - | 15 W/m² | - |
| 1777856570 | 25.56° C | 10% | 1010.3 hPa | 0 mm | - | 11 W/m² | - |
| 1777856267 | 25.56° C | 10% | 1010.2 hPa | 0 mm | - | 19 W/m² | - |
| 1777855964 | 25.56° C | 10% | 1009.9 hPa | 0 mm | - | 23 W/m² | - |
| 1777855662 | 25.56° C | 10% | 1010.3 hPa | 0 mm | - | 24 W/m² | - |
| 1777855359 | 25.56° C | 10% | 1010.3 hPa | 0 mm | - | 31 W/m² | - |
| 1777855055 | 25.56° C | 10% | 1010.1 hPa | 0 mm | - | 26 W/m² | - |
| 1777854753 | 25° C | 10% | 1010.1 hPa | 0 mm | - | 23 W/m² | - |
| 1777854449 | 25° C | 10% | 1010.1 hPa | 0 mm | - | 26 W/m² | - |
| 1777854146 | 25.56° C | 10% | 1010.1 hPa | 0 mm | - | 16 W/m² | - |
| 1777853844 | 26.11° C | 10% | 1010.3 hPa | 0 mm | - | 14 W/m² | - |
| 1777853541 | 26.11° C | 10% | 1010.3 hPa | 0 mm | - | 16 W/m² | - |
| 1777853237 | 26.11° C | 10% | 1010.1 hPa | 0 mm | - | 18 W/m² | - |
| 1777852934 | 26.67° C | 10% | 1009.7 hPa | 0 mm | - | 27 W/m² | - |
| 1777852633 | 26.11° C | 10% | 1009.7 hPa | 0 mm | - | 36 W/m² | - |
| 1777852329 | 26.67° C | 10% | 1009.8 hPa | 0 mm | - | 44 W/m² | - |
| 1777852027 | 27.22° C | 10% | 1010.2 hPa | 0 mm | - | 41 W/m² | - |
| 1777851725 | 27.78° C | 10% | 1010.1 hPa | 0 mm | - | 39 W/m² | - |
| 1777851422 | 27.78° C | 10% | 1009.7 hPa | 0 mm | - | 46 W/m² | - |
| 1777851117 | 27.78° C | 10% | 1009.6 hPa | 0 mm | - | 72 W/m² | - |
| 1777850814 | 27.78° C | 10% | 1009.6 hPa | 0 mm | - | 82 W/m² | - |
| 1777850511 | 27.78° C | 10% | 1009.1 hPa | 0 mm | - | 109 W/m² | - |
| 1777850210 | 27.78° C | 10% | 1009.1 hPa | 0 mm | - | 76 W/m² | - |
| 1777849906 | 28.33° C | 10% | 1008.9 hPa | 0 mm | - | 58 W/m² | - |
| 1777849603 | 27.78° C | 10% | 1008.8 hPa | 0 mm | - | 44 W/m² | - |
* Rain latest hour (hover to see other rain measurements)
** Current wind speed in m/s (hover to see current wind gust speed)